Time,TemperatureF,DewpointF,PressureIn,WindDirection,WindDirectionDegrees,WindSpeedMPH,WindSpeedGustMPH,Humidity,HourlyPrecipIn,Conditions,Clouds,dailyrainin,SolarRadiationWatts/m^2,SoftwareType,DateUTC
2013-04-03 00:23:00,45.0,42.0,30.15,NE,38,0.0,1.0,90,-99.99,,,-99.99,0.000000,,2013-04-03 07:23:00,
2013-04-03 00:32:00,45.0,42.0,30.15,NE,38,0.0,1.0,90,-99.99,,,-99.99,0.000000,,2013-04-03 07:32:00,
2013-04-03 01:12:00,43.0,42.0,30.13,NE,36,0.0,1.0,95,-99.99,,,-99.99,0.000000,,2013-04-03 08:12:00,
2013-04-03 01:22:00,43.0,42.0,30.13,NE,36,0.0,1.0,95,-99.99,,,-99.99,0.000000,,2013-04-03 08:22:00,
2013-04-03 01:42:00,43.0,42.0,30.13,NE,36,0.0,1.0,95,-99.99,,,-99.99,0.000000,,2013-04-03 08:42:00,
2013-04-03 01:51:00,43.0,42.0,30.13,NE,36,0.0,1.0,95,-99.99,,,-99.99,0.000000,,2013-04-03 08:51:00,
2013-04-03 05:20:00,44.0,44.0,30.09,SSE,165,0.0,1.0,99,-99.99,,,-99.99,0.000000,,2013-04-03 12:20:00,
2013-04-03 05:32:00,44.0,44.0,30.09,SSE,165,0.0,1.0,99,-99.99,,,-99.99,0.000000,,2013-04-03 12:32:00,
2013-04-03 05:42:00,44.0,44.0,30.09,SSE,165,0.0,1.0,99,-99.99,,,-99.99,0.000000,,2013-04-03 12:42:00,
2013-04-03 05:52:00,44.0,44.0,30.09,SSE,165,0.0,1.0,99,-99.99,,,-99.99,0.000000,,2013-04-03 12:52:00,
2013-04-03 06:02:00,44.0,44.0,30.09,SSE,165,0.0,1.0,99,-99.99,,,-99.99,0.000000,,2013-04-03 13:02:00,
2013-04-03 06:12:00,44.0,44.0,30.09,SSE,165,0.0,1.0,99,-99.99,,,-99.99,0.000000,,2013-04-03 13:12:00,
2013-04-03 08:40:00,51.0,42.0,30.10,ENE,63,4.0,6.0,72,-99.99,,,-99.99,30.000000,,2013-04-03 15:40:00,
2013-04-03 08:53:00,51.0,42.0,30.10,ENE,63,4.0,6.0,72,-99.99,,,-99.99,30.000000,,2013-04-03 15:53:00,
2013-04-03 09:03:00,51.0,42.0,30.10,ENE,63,4.0,6.0,72,-99.99,,,-99.99,30.000000,,2013-04-03 16:03:00,
2013-04-03 09:12:00,51.0,42.0,30.10,ENE,63,4.0,6.0,72,-99.99,,,-99.99,30.000000,,2013-04-03 16:12:00,
2013-04-03 09:23:00,51.0,42.0,30.10,ENE,63,4.0,6.0,72,-99.99,,,-99.99,30.000000,,2013-04-03 16:23:00,
2013-04-03 09:32:00,51.0,42.0,30.10,ENE,63,4.0,6.0,72,-99.99,,,-99.99,30.000000,,2013-04-03 16:32:00,
2013-04-03 19:20:00,67.0,51.0,30.00,WSW,248,2.0,6.0,55,-99.99,,,-99.99,100.000000,,2013-04-04 02:20:00,
2013-04-03 19:32:00,67.0,51.0,30.00,WSW,248,2.0,6.0,55,-99.99,,,-99.99,100.000000,,2013-04-04 02:32:00,
2013-04-03 19:42:00,67.0,51.0,30.00,WSW,248,2.0,6.0,55,-99.99,,,-99.99,100.000000,,2013-04-04 02:42:00,
2013-04-03 19:52:00,67.0,51.0,30.00,WSW,248,2.0,6.0,55,-99.99,,,-99.99,100.000000,,2013-04-04 02:52:00,
2013-04-03 20:02:00,67.0,51.0,30.00,WSW,248,2.0,6.0,55,-99.99,,,-99.99,100.000000,,2013-04-04 03:02:00,
2013-04-03 20:11:00,67.0,51.0,30.00,WSW,248,2.0,6.0,55,-99.99,,,-99.99,100.000000,,2013-04-04 03:11:00,
2013-04-03 22:52:00,49.0,46.0,30.04,NE,48,0.0,2.0,89,-99.99,,,-99.99,0.000000,,2013-04-04 05:52:00,
2013-04-03 23:02:00,49.0,46.0,30.04,NE,48,0.0,2.0,89,-99.99,,,-99.99,0.000000,,2013-04-04 06:02:00,
2013-04-03 23:12:00,49.0,46.0,30.04,NE,48,0.0,2.0,89,-99.99,,,-99.99,0.000000,,2013-04-04 06:12:00,
2013-04-03 23:22:00,49.0,46.0,30.04,NE,48,0.0,2.0,89,-99.99,,,-99.99,0.000000,,2013-04-04 06:22:00,
2013-04-03 23:30:00,48.0,45.0,30.04,East,88,1.0,2.0,92,-99.99,,,-99.99,0.000000,,2013-04-04 06:30:00,
2013-04-03 23:32:00,49.0,46.0,30.04,NE,48,0.0,2.0,89,-99.99,,,-99.99,0.000000,,2013-04-04 06:32:00,
2013-04-03 23:42:00,48.0,45.0,30.04,East,88,1.0,2.0,92,-99.99,,,-99.99,0.000000,,2013-04-04 06:42:00,
2013-04-03 23:52:00,48.0,45.0,30.04,East,88,1.0,2.0,92,-99.99,,,-99.99,0.000000,,2013-04-04 06:52:00,